Location: Newark
(12.5331°N, 56.4669°W)
Time: 05:05:11
(UTC+00:00)

Envisat - Visible Passes

Search period start: 26 January 2020 00:00
Search period end: 05 February 2020 00:00
Orbit: 764 x 766 km, 98.1° (Epoch: 25 January)

Date Brightness Start Highest point End Pass type
(mag) Time Alt. Az. Time Alt. Az. Time Alt. Az.
26 Jan 6.2 09:08:37 10° ENE 09:11:17 14° E 09:13:57 10° SE visible
27 Jan 5.7 22:47:32 10° SSW 22:51:23 22° W 22:55:15 10° NW visible
28 Jan 5.3 09:32:24 10° NE 09:36:46 29° E 09:41:08 10° SSE visible
28 Jan 3.6 22:09:39 10° S 22:14:39 62° WSW 22:19:39 10° NNW visible
29 Jan 6.7 08:59:46 10° E 08:59:59 10° E 09:00:12 10° E visible
29 Jan 6.6 23:16:29 10° WSW 23:16:53 10° W 23:17:17 10° W visible
30 Jan 5.1 22:35:44 10° SSW 22:40:06 30° W 22:44:29 10° NW visible
31 Jan 5.8 09:21:37 10° NE 09:25:29 22° E 09:29:20 10° SSE visible
31 Jan 3.1 21:58:19 10° S 22:03:22 84° WSW 22:08:27 10° NNW visible
01 Feb 6.2 23:02:55 10° SW 23:05:35 14° W 23:08:16 10° WNW visible
02 Feb 4.4 09:46:08 10° NNE 09:50:57 45° E 09:55:46 10° S visible
02 Feb 4.6 22:24:06 10° S 22:28:49 40° W 22:33:33 10° NNW visible
03 Feb 6.2 09:11:07 10° ENE 09:14:11 16° E 09:17:16 10° SE visible
04 Feb 5.9 22:50:41 10° SW 22:54:17 20° W 22:57:54 10° NW visible
